TimeCST,TemperatureF,Dew PointF,Humidity,Sea Level PressureIn,VisibilityMPH,Wind Direction,Wind SpeedMPH,Gust SpeedMPH,PrecipitationIn,Events,Conditions,WindDirDegrees,DateUTC
12:15 AM,48.4,38.3,68,30.19,10.0,NNE,8.1,-,N/A,,Clear,20,2013-02-28 06:15:00
12:35 AM,49.1,37.6,64,30.19,10.0,North,6.9,-,N/A,,Clear,10,2013-02-28 06:35:00
12:55 AM,48.4,37.0,65,30.19,10.0,North,5.8,-,N/A,,Clear,360,2013-02-28 06:55:00
1:15 AM,48.0,36.0,63,30.20,10.0,North,5.8,-,N/A,,Clear,10,2013-02-28 07:15:00
1:35 AM,48.2,35.2,61,30.21,10.0,NNW,4.6,-,N/A,,Clear,340,2013-02-28 07:35:00
1:55 AM,47.3,34.2,60,30.21,10.0,North,5.8,-,N/A,,Clear,350,2013-02-28 07:55:00
2:15 AM,46.9,33.4,59,30.21,10.0,North,5.8,-,N/A,,Clear,350,2013-02-28 08:15:00
2:35 AM,45.0,33.6,64,30.21,10.0,North,6.9,-,N/A,,Clear,360,2013-02-28 08:35:00
2:55 AM,44.8,34.9,68,30.20,10.0,North,6.9,-,N/A,,Clear,10,2013-02-28 08:55:00
3:15 AM,47.7,34.7,61,30.20,10.0,NNE,9.2,-,N/A,,Clear,20,2013-02-28 09:15:00
3:35 AM,49.5,33.6,54,30.21,10.0,NNE,10.4,-,N/A,,Clear,20,2013-02-28 09:35:00
3:55 AM,49.5,32.5,52,30.23,10.0,North,8.1,-,N/A,,Clear,360,2013-02-28 09:55:00
4:15 AM,47.1,32.7,57,30.23,10.0,North,10.4,-,N/A,,Clear,360,2013-02-28 10:15:00
4:35 AM,46.4,32.4,58,30.23,10.0,North,10.4,-,N/A,,Clear,10,2013-02-28 10:35:00
4:55 AM,49.3,32.0,51,30.23,10.0,NNE,17.3,-,N/A,,Clear,20,2013-02-28 10:55:00
5:15 AM,50.9,31.6,48,30.23,10.0,NNE,15.0,-,N/A,,Clear,30,2013-02-28 11:15:00
5:35 AM,50.5,31.8,49,30.24,10.0,NNE,15.0,-,N/A,,Clear,20,2013-02-28 11:35:00
5:55 AM,50.5,31.6,48,30.25,10.0,NNE,15.0,-,N/A,,Clear,20,2013-02-28 11:55:00
6:15 AM,50.5,31.3,48,30.25,10.0,NNE,16.1,-,N/A,,Clear,20,2013-02-28 12:15:00
6:35 AM,50.4,31.5,48,30.25,10.0,NNE,12.7,-,N/A,,Clear,20,2013-02-28 12:35:00
6:55 AM,50.2,31.6,49,30.27,10.0,NNE,15.0,-,N/A,,Clear,20,2013-02-28 12:55:00
7:15 AM,50.0,31.8,50,30.27,10.0,North,13.8,18.4,N/A,,Clear,10,2013-02-28 13:15:00
7:35 AM,50.2,32.0,50,30.27,10.0,NNE,13.8,-,N/A,,Clear,20,2013-02-28 13:35:00
7:55 AM,50.7,32.0,49,30.28,10.0,NNE,17.3,-,N/A,,Clear,20,2013-02-28 13:55:00
8:15 AM,50.9,31.5,47,30.29,10.0,North,20.7,-,N/A,,Clear,10,2013-02-28 14:15:00
8:35 AM,50.9,31.3,47,30.30,10.0,NNE,15.0,24.2,N/A,,Clear,20,2013-02-28 14:35:00
8:55 AM,51.3,31.1,46,30.30,10.0,NNE,19.6,24.2,N/A,,Clear,20,2013-02-28 14:55:00
9:15 AM,51.8,30.9,45,30.31,10.0,NNE,16.1,-,N/A,,Clear,20,2013-02-28 15:15:00
9:35 AM,53.4,30.7,42,30.31,10.0,North,20.7,25.3,N/A,,Clear,10,2013-02-28 15:35:00
9:55 AM,54.9,29.3,38,30.30,10.0,NNE,20.7,26.5,N/A,,Clear,20,2013-02-28 15:55:00
10:15 AM,54.7,28.8,37,30.31,10.0,NNE,16.1,25.3,N/A,,Clear,20,2013-02-28 16:15:00
10:35 AM,56.1,28.2,34,30.30,10.0,NNE,17.3,-,N/A,,Clear,20,2013-02-28 16:35:00
10:55 AM,57.6,27.7,32,30.30,10.0,NNE,17.3,23.0,N/A,,Clear,20,2013-02-28 16:55:00
11:15 AM,58.1,27.0,30,30.30,10.0,NNE,18.4,24.2,N/A,,Clear,20,2013-02-28 17:15:00
11:35 AM,59.5,26.2,28,30.29,10.0,North,20.7,27.6,N/A,,Clear,360,2013-02-28 17:35:00
11:55 AM,60.4,24.6,25,30.28,10.0,North,19.6,26.5,N/A,,Clear,10,2013-02-28 17:55:00
12:15 PM,60.6,25.0,26,30.27,10.0,NNE,17.3,-,N/A,,Clear,20,2013-02-28 18:15:00
12:35 PM,61.5,24.8,25,30.26,10.0,NNE,20.7,26.5,N/A,,Clear,20,2013-02-28 18:35:00
12:55 PM,61.9,24.3,24,30.25,10.0,NNE,19.6,27.6,N/A,,Clear,20,2013-02-28 18:55:00
1:15 PM,62.1,24.6,24,30.24,10.0,NNE,18.4,23.0,N/A,,Clear,20,2013-02-28 19:15:00
1:35 PM,62.6,25.0,24,30.23,10.0,North,16.1,21.9,N/A,,Clear,360,2013-02-28 19:35:00
1:55 PM,62.1,24.3,24,30.22,10.0,North,13.8,23.0,N/A,,Clear,10,2013-02-28 19:55:00
2:15 PM,61.5,23.7,24,30.21,10.0,NNE,16.1,23.0,N/A,,Clear,20,2013-02-28 20:15:00
2:35 PM,61.3,24.1,24,30.20,10.0,NNE,12.7,-,N/A,,Clear,20,2013-02-28 20:35:00
2:55 PM,61.3,23.7,24,30.20,10.0,NNE,16.1,20.7,N/A,,Clear,20,2013-02-28 20:55:00
3:15 PM,61.5,24.3,24,30.20,10.0,North,9.2,17.3,N/A,,Clear,360,2013-02-28 21:15:00
3:35 PM,61.5,23.7,24,30.20,10.0,North,-9999.0,-,N/A,,Clear,0,2013-02-28 21:35:00
3:55 PM,61.5,22.8,23,30.19,10.0,North,-9999.0,-,N/A,,Clear,0,2013-02-28 21:55:00
4:15 PM,61.3,22.6,23,30.20,10.0,North,12.7,17.3,N/A,,Clear,10,2013-02-28 22:15:00
4:35 PM,61.0,22.6,23,30.20,10.0,North,13.8,17.3,N/A,,Clear,360,2013-02-28 22:35:00
4:55 PM,61.2,22.3,22,30.20,10.0,North,11.5,-,N/A,,Clear,10,2013-02-28 22:55:00
5:15 PM,61.0,21.4,22,30.20,10.0,North,15.0,-,N/A,,Clear,360,2013-02-28 23:15:00
6:15 PM,59.7,22.1,24,30.21,10.0,North,9.2,-,N/A,,Clear,360,2013-03-01 00:15:00
6:35 PM,58.6,23.7,26,30.21,10.0,North,6.9,-,N/A,,Clear,10,2013-03-01 00:35:00
7:15 PM,54.9,27.3,35,30.22,10.0,North,6.9,-,N/A,,Clear,360,2013-03-01 01:15:00
7:35 PM,54.0,28.6,38,30.23,10.0,North,5.8,-,N/A,,Clear,360,2013-03-01 01:35:00
7:55 PM,53.8,30.6,41,30.24,10.0,North,4.6,-,N/A,,Clear,360,2013-03-01 01:55:00
8:15 PM,53.6,31.8,44,30.24,10.0,North,5.8,-,N/A,,Clear,360,2013-03-01 02:15:00
8:35 PM,53.2,32.0,44,30.24,10.0,North,4.6,-,N/A,,Clear,360,2013-03-01 02:35:00
8:55 PM,52.7,31.5,44,30.25,10.0,Calm,Calm,-,N/A,,Clear,0,2013-03-01 02:55:00
9:15 PM,52.0,31.1,45,30.25,10.0,North,3.5,-,N/A,,Clear,350,2013-03-01 03:15:00
9:35 PM,51.1,30.7,46,30.25,10.0,NNW,4.6,-,N/A,,Clear,340,2013-03-01 03:35:00
9:55 PM,50.9,30.7,46,30.25,10.0,Calm,Calm,-,N/A,,Clear,0,2013-03-01 03:55:00
10:15 PM,49.5,32.5,52,30.25,10.0,Calm,Calm,-,N/A,,Clear,0,2013-03-01 04:15:00
10:35 PM,50.4,31.3,48,30.25,10.0,Calm,Calm,-,N/A,,Clear,0,2013-03-01 04:35:00
11:15 PM,48.2,30.6,51,30.26,10.0,West,3.5,-,N/A,,Clear,260,2013-03-01 05:15:00
11:35 PM,47.1,28.6,49,30.27,10.0,WSW,4.6,-,N/A,,Clear,250,2013-03-01 05:35:00
11:55 PM,46.0,30.0,54,30.27,10.0,SW,4.6,-,N/A,,Clear,230,2013-03-01 05:55:00